Regional Weather Roundup
Issued by NWS

Home | Current Version | Previous Version | Graphics & Text | Print | Product List | Glossary On
Versions: 1 2 3 4 5 6 7 8 9 10 11 12 13 14 15 16 17 18 19 20 21 22 23 24 25 26 27 28 29 30 31 32 33 34 35 36 37 38 39 40 41 42 43 44 45 46 47 48 49 50
000
ASUS44 KMEG 230210
RWRTN
TENNESSEE HOURLY STATE WEATHER ROUNDUP
NATIONAL WEATHER SERVICE MEMPHIS TN
800 PM CST MON JAN 22 2018

TNZ002-004-019-021-049-052-054-088>092-230300-
WEST TENNESSEE

CITY           SKY/WX    TMP DP  RH WIND       PRES   REMARKS
MEMPHIS INTL   FAIR      51  31  46 SW13G26   29.85R
NWS MEMPHIS      N/A     52 N/A N/A MISG        N/A
JACKSON        FAIR      50  34  54 SW14G23   29.82R
SOMERVILLE     CLEAR     52  30  43 SW10G21   29.83R
COVINGTON      MOCLDY    50  34  53 W12G17    29.83R
UNION CITY     CLOUDY    48  32  53 W20G31    29.77R
BOLIVAR        CLEAR     52  30  43 SW18G25   29.83R
PARIS          CLEAR     50  32  50 SW23G30   29.75R
HUNTINGDON     CLEAR     52  32  46 SW12G24   29.77R
LEXINGTON      CLEAR     54  30  40 SW17G28   29.79R
SELMER         CLEAR     54  30  40 SW14G21   29.82R
SAVANNAH       PTCLDY    54  32  43 SW13      29.82R
$$

TNZ008-025-027-028-033-062-065-066-230300-
NORTH MIDDLE TENNESSEE

CITY           SKY/WX    TMP DP  RH WIND       PRES   REMARKS
NASHVILLE      FAIR      61  37  41 SW13G26   29.74R
PORTLAND       PTCLDY    59  39  47 SW15G24   29.71R
CLARKSVILLE    FAIR      54  28  36 W17G30    29.73R
SMYRNA         MOCLDY    61  50  67 SW15G31   29.75R
COOKEVILLE     CLOUDY    59  54  82 SW12      29.75S
GALLATIN       MOCLDY    61  43  51 SW12G22   29.75R
CROSSVILLE     CLOUDY    56  53  90 S12G28    29.78F
$$

TNZ061-075-076-078-094-096-097-230300-
SOUTH MIDDLE TENNESSEE

CITY           SKY/WX    TMP DP  RH WIND       PRES   REMARKS
FAYETTEVILLE   MOCLDY    59  55  88 S15G23    29.81R
TULLAHOMA      PTCLDY    59  52  77 S10G17    29.79S
WINCHESTER     CLEAR     59  52  77 S13       29.82R
MCMINNVILLE    MOCLDY    61  54  77 SW13G25   29.78R
COLUMBIA       CLEAR     57  32  38 SW21G29   29.77R
SHELBYVILLE    MOCLDY    59  54  82 SW18G31   29.78S
$$

TNZ017-018-042-046-047-230300-
NORTHEAST TENNESSEE

CITY           SKY/WX    TMP DP  RH WIND       PRES   REMARKS
TRI CITIES     FAIR      58  49  72 SE8       29.86F
ELIZABETHTON   CLOUDY    59  48  67 NE6       29.88F
$$

TNZ012-013-036-069-073-074-230300-
CENTRAL EAST TENNESSEE

CITY           SKY/WX    TMP DP  RH WIND       PRES   REMARKS
KNOXVILLE      FAIR      59  51  75 S8        29.79F
OAK RIDGE      MOCLDY    50  50 100 CALM      29.81F FOG
DOWNTOWN KNOXV FOG       43  43 100 CALM      29.81F VSB 0
GATLINBURG     CLEAR     66  48  52 SW10G22   29.79F
MORRISTOWN     MOCLDY    55  48  76 CALM      29.81F
JACKSBORO      CLOUDY    59  54  82 SW20G31   29.81F
$$

TNZ083-085-099-230300-
SOUTHEAST TENNESSEE

CITY           SKY/WX    TMP DP  RH WIND       PRES   REMARKS
CHATTANOOGA    CLOUDY    60  56  86 S10       29.84S
DAYTON         CLOUDY    59  59 100 S8        29.81F
$$

SKY/WX REPORTED AS FAIR MEANS FEW OR NO CLOUDS BELOW
12 THOUSAND FEET.





USA.gov is the U.S. government's official web portal to all federal, state and local government web resources and services.